Location: Marcé
(47.5801°N, 0.3280°W)
Time: 20:12:28
(UTC+01:00)

Explorer 7 - Pass Details

Date: 30 November 2021
Orbit: 483 x 674 km, 50.3° (Epoch: 17 January)

Event Time Altitude Azimuth Distance (km) Brightness Sun altitude
Rises 12:36:11 0° 289° (WNW) 2,621 10.1 20.6°
Reaches altitude 10° 12:38:25 10° 289° (WNW) 1,711 9.2 20.6°
Maximum altitude 12:42:17 89° 224° (SW) 495 7.0 20.7°
Drops below altitude 10° 12:46:02 10° 111° (ESE) 1,662 9.6 20.7°
Sets 12:48:10 0° 111° (ESE) 2,538 10.5 20.7°
